Powrót do katalogu

STARLINK-3326

AktywnyŁącznośćVLEO
NORAD 50844·PAYLOAD·🇺🇸 United States

Wystrzelony Jan 6, 2022 z Cape Canaveral Space Force Station

Loading…

Następne Przeloty (najbliższe 24 godziny)

TLE

ŚwieżeSource: CelesTrak SupGP

Epoka: Sep 14, 2026, 20:27 UTC

1 50844C 22001AT  26257.85256944  .00071976  00000+0  20133-2 0  2578
2 50844  53.1599  35.9834 0000516  20.3855  11.7818 15.36067380    18

Śledź STARLINK-3326 w czasie rzeczywistym z AllMySat

Download on the App Store